Keahole Point, HI

4:39 PM HST on August 16, 2017 (GMT -1000)
Kona International At Keahole

Weather History for PHKO - July, 2013

Change the Weather History Date:

Wednesday, July 24, 2013

  Actual Average Record
Temperature  
Mean Temperature 82 °F -  
Max Temperature 86 °F 83 °F 91 °F (1982)
Min Temperature 77 °F 73 °F 70 °F (1991)
Cooling Degree Days 16    
Growing Degree Days 32 (Base 50)    
Moisture  
Dew Point 71 °F    
Average Humidity 75    
Maximum Humidity 89    
Minimum Humidity 61    
Precipitation  
Precipitation 0.03 in - - ()
Sea Level Pressure  
Sea Level Pressure 29.94 in    
Wind  
Wind Speed 8 mph (SW)    
Max Wind Speed 15 mph    
Max Gust Speed -    
Visibility 10 miles    
Events Rain    
Averages and records for this station are not official NWS values.
T = Trace of Precipitation, MM = Missing Value Source: NWS Daily Summary

Daily Weather History Graph

Daily Weather History Graph

Search for Another Location

Airport or City:

Trip Planner

Search our weather history database for the weather conditions in past years. The results will help you decide how hot, cold, wet, or windy it might be!

Date:

Astronomy

Jul. 24, 2013 Rise Set
Actual Time 5:57 AM HST 7:03 PM HST
Civil Twilight 5:33 AM HST 7:27 PM HST
Nautical Twilight 5:05 AM HST 7:55 PM HST
Astronomical Twilight 4:36 AM HST 8:24 PM HST
Moon 8:48 PM HST (7/24) 8:03 AM HST (7/24)
Length of Visible Light 13h 54m
Length of Day
13h 06m
Waning Gibbous, 93% of the Moon is Illuminated
Jul 24
Waning Gibbous
Jul 29
Last Quarter
Aug 6
New
Aug 14
First Quarter
Aug 20
Full

Hourly Weather History & Observations

Time (HST) Temp. Heat Index Dew Point Humidity Pressure Visibility Wind Dir Wind Speed Gust Speed Precip Events Conditions
12:49 AM 80.6 °F 85.4 °F 73.4 °F 79% 29.98 in 10.0 mi NW 10.4 mph - N/A   Overcast
12:53 AM 80.1 °F 84.5 °F 73.9 °F 81% 29.98 in 10.0 mi NW 9.2 mph - N/A   Overcast
1:45 AM 78.8 °F - 75.2 °F 89% 29.96 in 10.0 mi NW 8.1 mph - 0.01 in Rain Light Rain
1:53 AM 78.1 °F - 73.9 °F 87% 29.96 in 10.0 mi WNW 9.2 mph - 0.01 in Rain Light Rain
2:53 AM 78.1 °F - 73.9 °F 87% 29.94 in 10.0 mi NW 10.4 mph - 0.02 in Rain Light Rain
3:04 AM 78.8 °F - 73.4 °F 83% 29.93 in 10.0 mi WNW 8.1 mph - 0.00 in Rain Light Rain
3:53 AM 78.1 °F - 73.0 °F 84% 29.94 in 10.0 mi WNW 5.8 mph - 0.00 in   Overcast
4:40 AM 77.0 °F - 71.6 °F 83% 29.94 in 10.0 mi ENE 3.5 mph - N/A   Overcast
4:53 AM 78.1 °F - 73.0 °F 84% 29.94 in 10.0 mi ENE 3.5 mph - N/A   Overcast
5:53 AM 77.0 °F - 72.0 °F 84% 29.95 in 10.0 mi SE 4.6 mph - N/A   Overcast
6:53 AM 77.0 °F - 72.0 °F 84% 29.96 in 10.0 mi SSE 4.6 mph - N/A   Mostly Cloudy
7:53 AM 79.0 °F - 72.0 °F 79% 29.96 in 10.0 mi Calm Calm - N/A   Scattered Clouds
8:18 AM 80.6 °F 84.6 °F 71.6 °F 74% 29.96 in 10.0 mi WNW 4.6 mph - N/A   Mostly Cloudy
8:53 AM 81.0 °F 85.2 °F 72.0 °F 74% 29.96 in 10.0 mi SE 5.8 mph - N/A   Mostly Cloudy
9:02 AM 80.6 °F 84.6 °F 71.6 °F 74% 29.96 in 10.0 mi SSE 5.8 mph - N/A   Partly Cloudy
9:53 AM 82.9 °F 87.5 °F 71.1 °F 67% 29.96 in 10.0 mi SSW 10.4 mph - N/A   Partly Cloudy
10:53 AM 84.0 °F 89.6 °F 72.0 °F 67% 29.95 in 10.0 mi South 13.8 mph - N/A   Clear
11:53 AM 84.0 °F 89.6 °F 72.0 °F 67% 29.94 in 10.0 mi South 12.7 mph - N/A   Mostly Cloudy
12:53 PM 86.0 °F 91.5 °F 71.1 °F 61% 29.93 in 10.0 mi SW 15.0 mph - N/A   Partly Cloudy
1:53 PM 86.0 °F 91.5 °F 71.1 °F 61% 29.92 in 10.0 mi SSW 11.5 mph - N/A   Partly Cloudy
2:53 PM 82.9 °F 87.5 °F 71.1 °F 67% 29.91 in 10.0 mi WSW 10.4 mph - N/A   Overcast
3:53 PM 82.9 °F 87.0 °F 70.0 °F 65% 29.89 in 10.0 mi SW 10.4 mph - N/A   Overcast
4:53 PM 82.9 °F 87.0 °F 70.0 °F 65% 29.88 in 10.0 mi SW 8.1 mph - N/A   Mostly Cloudy
5:53 PM 81.0 °F 84.4 °F 70.0 °F 69% 29.89 in 10.0 mi SW 8.1 mph - N/A   Overcast
6:53 PM 80.1 °F 83.2 °F 70.0 °F 71% 29.90 in 10.0 mi SW 6.9 mph - N/A   Overcast
7:16 PM 80.6 °F 83.9 °F 69.8 °F 70% 29.91 in 10.0 mi WSW 6.9 mph - N/A   Overcast
7:34 PM 80.6 °F 83.9 °F 69.8 °F 70% 29.91 in 10.0 mi SW 6.9 mph - N/A   Overcast
7:53 PM 80.1 °F 82.9 °F 69.1 °F 69% 29.91 in 10.0 mi SSW 3.5 mph - N/A   Overcast
8:53 PM 80.1 °F 82.9 °F 69.1 °F 69% 29.92 in 10.0 mi South 3.5 mph - N/A   Scattered Clouds
9:53 PM 79.0 °F - 69.1 °F 72% 29.93 in 10.0 mi East 3.5 mph - N/A   Clear
10:53 PM 79.0 °F - 70.0 °F 74% 29.93 in 10.0 mi SSW 4.6 mph - N/A   Partly Cloudy
11:53 PM 78.1 °F - 70.0 °F 76% 29.94 in 10.0 mi SE 3.5 mph - N/A   Overcast